Belmar-Farmingdale, NJ

1:12 AM EDT on October 16, 2019 (GMT -0400)
Allaire

Weather History for KBLM - September, 2019

Change the Weather History Date:

Sunday, September 15, 2019

  Actual Average Record
Temperature  
Mean Temperature 74 °F -  
Max Temperature 78 °F 73 °F 84 °F (1998)
Min Temperature 68 °F 58 °F 46 °F (2001)
Cooling Degree Days 8    
Growing Degree Days 24 (Base 50)    
Moisture  
Dew Point 67 °F    
Average Humidity 86    
Maximum Humidity 100    
Minimum Humidity 64    
Precipitation  
Precipitation 0.19 in - - ()
Sea Level Pressure  
Sea Level Pressure 30.15 in    
Wind  
Wind Speed 3 mph ()    
Max Wind Speed 10 mph    
Max Gust Speed -    
Visibility 9.2 miles    
Events Rain    
Averages and records for this station are not official NWS values.
T = Trace of Precipitation, MM = Missing Value Source: Averaged Metar Reports

Daily Weather History Graph

Daily Weather History Graph

Search for Another Location

Airport or City:

Astronomy

Sep. 15, 2019 Rise Set
Actual Time 6:37 AM EDT 7:05 PM EDT
Civil Twilight 6:09 AM EDT 7:32 PM EDT
Nautical Twilight 5:37 AM EDT 8:04 PM EDT
Astronomical Twilight 5:04 AM EDT 8:37 PM EDT
Moon 8:12 PM EDT (9/15) 7:44 AM EDT (9/15)
Length of Visible Light 13h 23m
Length of Day
12h 28m
Full, 98% of the Moon is Illuminated
Sep 15
Full
Sep 21
Last Quarter
Sep 28
New
Oct 5
First Quarter
Oct 13
Full

Hourly Weather History & Observations

Time (EDT) Temp. Dew Point Humidity Pressure Visibility Wind Dir Wind Speed Gust Speed Precip Events Conditions
12:56 AM 71.1 °F 68.0 °F 90% 30.18 in 10.0 mi SSW 4.6 mph - N/A   Overcast
1:56 AM 69.1 °F 69.1 °F 100% 30.19 in 10.0 mi WSW 3.5 mph - 0.03 in   Overcast
2:56 AM 70.0 °F 69.1 °F 97% 30.17 in 3.0 mi SW 4.6 mph - 0.10 in Rain Heavy Rain
3:56 AM 70.0 °F 69.1 °F 97% 30.16 in 10.0 mi SW 3.5 mph - 0.05 in   Overcast
4:56 AM 70.0 °F 69.1 °F 97% 30.17 in 10.0 mi Calm Calm - N/A   Overcast
5:56 AM 70.0 °F 69.1 °F 97% 30.17 in 8.0 mi Calm Calm - 0.00 in Rain Light Rain
6:10 AM 69.8 °F 69.8 °F 100% 30.17 in 9.0 mi Calm Calm - 0.00 in Rain Light Rain
6:56 AM 70.0 °F 69.1 °F 97% 30.18 in 8.0 mi West 3.5 mph - 0.01 in   Overcast
7:15 AM 69.8 °F 69.8 °F 100% 30.17 in 7.0 mi NNW 4.6 mph - N/A   Overcast
7:18 AM 69.8 °F 69.8 °F 100% 30.17 in 7.0 mi NNW 4.6 mph - N/A   Overcast
7:56 AM 70.0 °F 69.1 °F 97% 30.17 in 5.0 mi NNW 3.5 mph - N/A   Overcast
8:56 AM 71.1 °F 69.1 °F 93% 30.18 in 10.0 mi Calm Calm - N/A   Mostly Cloudy
9:05 AM 71.6 °F 68.0 °F 88% 30.18 in 10.0 mi Calm Calm - N/A   Overcast
9:32 AM 73.4 °F 68.0 °F 83% 30.18 in 10.0 mi North 5.8 mph - N/A   Partly Cloudy
9:51 AM 73.4 °F 66.2 °F 78% 30.18 in 10.0 mi North 8.1 mph - N/A   Mostly Cloudy
9:56 AM 73.0 °F 66.9 °F 81% 30.18 in 10.0 mi NNW 5.8 mph - N/A   Mostly Cloudy
10:29 AM 75.2 °F 66.2 °F 73% 30.18 in 10.0 mi NE 5.8 mph - N/A   Mostly Cloudy
10:56 AM 73.9 °F 64.9 °F 73% 30.18 in 10.0 mi NNE 5.8 mph - N/A   Scattered Clouds
11:05 AM 73.4 °F 66.2 °F 78% 30.17 in 10.0 mi NNW 5.8 mph - N/A   Mostly Cloudy
11:56 AM 75.9 °F 64.0 °F 67% 30.17 in 10.0 mi Calm Calm - N/A   Overcast
12:44 PM 77.0 °F 64.4 °F 65% 30.16 in 10.0 mi North 3.5 mph - N/A   Overcast
12:56 PM 77.0 °F 64.9 °F 66% 30.16 in 10.0 mi Calm Calm - N/A   Overcast
2:56 PM 78.1 °F 66.0 °F 66% 30.11 in 10.0 mi ESE 5.8 mph - N/A   Mostly Cloudy
3:56 PM 78.1 °F 64.9 °F 64% 30.09 in 10.0 mi ESE 10.4 mph - N/A   Partly Cloudy
4:56 PM 77.0 °F 66.0 °F 69% 30.10 in 10.0 mi Variable 3.5 mph - N/A   Clear
5:56 PM 75.0 °F 66.9 °F 76% 30.11 in 10.0 mi SSE 6.9 mph - N/A   Clear
6:56 PM 73.0 °F 66.9 °F 81% 30.10 in 10.0 mi SE 4.6 mph - N/A   Clear
7:56 PM 70.0 °F 66.9 °F 90% 30.11 in 10.0 mi Calm Calm - N/A   Clear
8:56 PM 70.0 °F 68.0 °F 93% 30.10 in 10.0 mi Calm Calm - N/A   Clear
9:56 PM 69.1 °F 68.0 °F 96% 30.10 in 8.0 mi SSW 4.6 mph - N/A   Clear
10:56 PM 69.1 °F 68.0 °F 96% 30.09 in 8.0 mi SW 5.8 mph - N/A   Clear
11:56 PM 68.0 °F 66.9 °F 96% 30.09 in 10.0 mi SW 5.8 mph - N/A   Clear